Location: Baumgarten
(49.0970°N, 12.7493°E)
Time: 02:21:55
(UTC+00:00)

Cosmos 2369 Rocket - Pass Details

Date: 05 July 2020
Orbit: 830 x 851 km, 71.0° (Epoch: 04 August)

Event Time Altitude Azimuth Distance (km) Brightness Sun altitude
Rises 23:37:33 0° 330° (NNW) 3,384 6.2 -18.0°
Reaches altitude 10° 23:40:00 10° 329° (NNW) 2,447 5.4 -18.0°
Maximum altitude 23:45:36 77° 245° (WSW) 857 2.1 -17.9°
Enters shadow 23:48:43 27° 163° (SSE) 1,538 3.0 -17.8°
